Location: Irma
(52.9170°N, 111.2330°W)
Time: 04:14:08
(UTC-06:00)

Daily predictions for brighter satellites

Satellite Brightness Start Highest point End
(mag) Time Altitude Azimuth Time Altitude Azimuth Time Altitude Azimuth
DMSP B5D2-2 4.3 00:01:25 10° N 00:06:40 67° WNW 00:08:20 43° SW
Cosmos 1953 4.1 00:08:21 23° ENE 00:08:21 23° ENE 00:10:34 10° NNE
Spot 2 4.1 00:04:30 10° NNE 00:08:04 66° NE 00:08:04 66° NE
Cosmos 1408 Rocket 3.7 00:04:15 10° N 00:08:33 69° ENE 00:08:33 69° ENE
Cosmos 1743 Rocket 4.4 00:06:14 10° N 00:10:15 39° ENE 00:10:15 39° ENE
Cosmos 1378 3.8 00:09:34 10° NNW 00:12:35 54° NNW 00:12:35 54° NNW
Cosmos 1072 Rocket 4.4 00:11:49 53° S 00:13:28 89° W 00:19:43 10° N
CRYOSAT 2 4.4 00:08:36 10° N 00:13:31 71° W 00:14:05 64° SW
In-Cosmos 22 4.1 00:10:58 10° N 00:16:27 72° ENE 00:17:05 64° ESE
Cosmos 1441 Rocket 4.1 00:14:21 10° NNW 00:17:40 45° WNW 00:17:40 45° WNW
Meteor 1-24 Rocket 4.1 00:13:15 10° NNW 00:19:15 64° W 00:20:33 51° SSW
USA 215 4.4 00:19:35 25° SW 00:20:10 25° SW 00:25:26 10° WNW
Cosmos 921 Rocket 3.4 00:15:49 10° NNW 00:20:01 59° NE 00:20:01 59° NE
Cosmos 2219 Rocket 4.1 00:21:35 15° E 00:21:35 15° E 00:23:48 10° ENE
Cosmos 2263 Rocket 3.0 00:15:53 10° NW 00:20:58 37° WSW 00:21:38 36° SW
Cosmos 2322 3.8 00:29:05 58° ESE 00:29:05 58° ESE 00:34:32 10° NE
Cosmos 2322 Rocket 2.5 00:26:54 37° WSW 00:29:07 65° NW 00:34:45 10° NNE
Cosmos 540 Rocket 3.9 00:31:10 43° WSW 00:32:33 57° WNW 00:37:38 10° NNE
Cosmos 2333 Rocket 4.2 00:33:47 16° E 00:33:47 16° E 00:36:19 10° ENE
Cosmos 332 Rocket 4.4 00:31:59 42° WSW 00:33:12 53° WNW 00:38:02 10° NNE
Cosmos 1766 4.1 00:36:53 48° N 00:36:53 48° N 00:39:47 10° N
Cosmos 2237 Rocket 4.2 00:37:53 14° E 00:37:53 14° E 00:40:07 10° ENE
Cosmos 371 Rocket 3.5 00:37:22 61° W 00:37:47 65° WNW 00:42:36 10° NNE
Cosmos 1076 Rocket 4.1 00:34:51 10° NNW 00:38:28 51° WNW 00:38:28 51° WNW
Cosmos 1766 Rocket 3.9 00:36:12 10° NNW 00:40:15 60° WNW 00:40:15 60° WNW
Cosmos 2034 Rocket 3.9 00:40:39 60° SSW 00:41:52 81° W 00:48:06 10° N
Terra 3.9 00:41:23 16° WSW 00:42:25 17° W 00:45:31 10° NW
H-2A R/B 4.1 00:41:08 14° WSW 00:42:37 16° W 00:45:33 10° NW
Cosmos 1680 Rocket 4.4 00:46:34 38° E 00:46:34 38° E 00:50:45 10° NE
SL-24 DEB 4.4 00:42:24 10° N 00:47:05 68° WNW 00:47:05 68° WNW
COSMOS 2428 3.3 00:49:05 43° E 00:49:05 43° E 00:53:53 10° NE
GEOS 3 Rocket 4.3 00:43:46 10° NE 00:48:45 53° NW 00:52:29 18° WSW
CZ-4B R/B 3.0 00:53:40 36° N 00:53:40 36° N 00:55:57 10° NNW
Cosmos 2151 4.1 00:48:59 10° N 00:52:29 37° NE 00:52:29 37° NE
Cosmos 1092 Rocket 3.9 00:47:01 10° NNW 00:53:25 83° W 00:54:25 65° S
Meteor 1-21 Rocket 4.2 00:50:22 10° NNW 00:56:15 76° W 00:56:45 70° SW
Cosmos 1818 4.3 00:51:33 10° NW 00:56:55 50° NE 00:58:44 36° E
Cosmos 1634 Rocket 4.1 00:59:36 57° SE 01:00:21 62° E 01:06:35 10° NNE
Cosmos 2278 Rocket 2.2 00:59:23 10° NNW 01:05:06 73° NE 01:05:46 65° ESE
Cosmos 2237 4.3 01:07:30 63° ESE 01:07:30 63° ESE 01:13:00 10° NE
Cosmos 1674 4.0 01:04:15 10° N 01:06:44 39° N 01:06:44 39° N
Cosmos 1538 Rocket 4.3 01:10:03 55° W 01:10:50 61° WNW 01:16:12 10° NNE
Cosmos 1842 Rocket 4.3 01:14:36 48° NE 01:14:36 48° NE 01:18:01 10° NNE
Cosmos 2056 Rocket 3.5 01:09:57 10° NNW 01:15:15 77° ENE 01:15:26 75° E
Cosmos 923 Rocket 3.9 01:16:02 78° ENE 01:16:02 78° ENE 01:21:04 10° NNE
Lacrosse 4 Rocket 2.3 01:17:21 46° NE 01:17:21 46° NE 01:20:35 10° NE
Cosmos 2279 Rocket 4.3 01:18:24 49° ESE 01:19:07 52° E 01:25:07 10° NNE
Cosmos 1371 Rocket 3.9 01:16:06 10° NNW 01:21:02 75° WNW 01:21:02 75° WNW
SL-16 R/B 3.6 01:20:59 17° W 01:24:39 35° NW 01:29:51 10° NNE
Cosmos 1627 Rocket 4.3 01:19:09 10° NNW 01:25:18 76° W 01:25:57 68° SSW
Cosmos 1844 3.9 01:23:10 10° NW 01:28:31 57° WSW 01:28:31 57° WSW
ALOS 2 4.0 01:31:52 30° WNW 01:31:52 30° WNW 01:34:59 10° NNW
Cosmos 1500 Rocket 4.4 01:28:06 10° NNW 01:31:22 42° NW 01:31:22 42° NW
Cosmos 1844 Rocket 3.4 01:29:08 10° NW 01:33:48 40° W 01:33:48 40° W
Cosmos 1733 4.5 01:36:33 40° NNE 01:36:33 40° NNE 01:39:10 10° NNE
Cosmos 773 Rocket 4.3 01:36:50 56° W 01:37:21 59° WNW 01:42:37 10° NNE
ATLAS CENTAUR R/B 3.7 01:33:35 10° NW 01:37:34 26° NNE 01:41:17 10° ENE
CZ-2C R/B 2.6 01:32:41 10° NNE 01:38:13 72° ESE 01:38:26 71° ESE
Cosmos 1633 Rocket 4.1 01:34:44 10° N 01:38:50 40° ENE 01:38:50 40° ENE
Cosmos 2360 Rocket 2.8 01:40:33 39° W 01:42:07 50° NW 01:47:40 10° NNE
ATLAS 3B R/B 3.4 01:41:56 39° SE 01:42:37 40° ESE 01:49:23 10° NE
Cosmos 1953 3.7 01:44:07 33° NW 01:44:07 33° NW 01:47:15 10° N
CZ-2C R/B 2.9 01:45:07 72° WNW 01:45:07 72° WNW 01:49:46 10° NNW
Cosmos 2026 Rocket 4.0 01:39:56 10° NNW 01:46:00 61° W 01:46:34 59° WSW
Cosmos 1470 3.8 01:48:19 46° N 01:48:19 46° N 01:51:16 10° N
H-2A R/B 3.2 01:43:44 10° N 01:47:07 48° NNW 01:47:07 48° NNW
Exosat Rocket 4.3 01:43:22 10° NNW 01:48:15 50° NE 01:50:02 36° ESE
Cosmos-2242 4.2 01:49:01 35° WNW 01:49:01 35° WNW 01:52:35 10° N
Cosmos 2369 Rocket 4.3 01:44:16 10° NNW 01:48:46 24° NE 01:53:16 10° E
Cosmos 1624 Rocket 4.3 01:43:33 10° NNW 01:48:19 57° W 01:48:19 57° W
Meteor 1-11 4.1 01:44:40 10° NNW 01:50:28 88° WSW 01:50:56 77° S
Sich 1 3.6 01:46:53 10° N 01:50:55 53° NE 01:50:55 53° NE
Cosmos 2221 3.2 01:52:17 49° ENE 01:52:17 49° ENE 01:55:55 10° NNE
Cosmos 1437 Rocket 4.4 01:57:55 30° ENE 01:57:55 30° ENE 02:00:53 10° NNE
COSMOS 2455 3.1 01:58:18 52° SE 01:58:27 52° ESE 02:04:18 10° NE
Cosmos 2219 Rocket 2.0 02:03:18 78° SSE 02:03:33 80° ESE 02:09:13 10° NNE
SL-14 R/B 4.4 02:02:48 10° NNW 02:05:21 39° NNW 02:05:21 39° NNW
Cosmos 1655 Rocket 4.4 02:03:03 10° NNW 02:09:07 47° W 02:09:50 45° WSW
USA 81 3.9 02:10:38 80° WSW 02:10:48 82° W 02:16:09 10° N
Cosmos 2112 Rocket 4.3 02:11:18 56° W 02:11:52 59° WNW 02:17:10 10° NNE
Timation 1 Rocket 4.3 02:08:11 10° NNW 02:14:12 85° ENE 02:15:32 57° SE
Cosmos 2322 Rocket 4.4 02:10:06 10° W 02:14:17 21° NNW 02:18:31 10° NNE
SL-16 R/B 3.1 02:14:39 35° ESE 02:15:04 35° ESE 02:20:12 10° NE
Cosmos 1452 Rocket 3.4 02:10:04 10° NNW 02:15:24 81° WSW 02:15:25 81° WSW
Cosmos 2297 3.6 02:10:05 10° NW 02:15:48 71° WSW 02:15:57 71° SW
Meteor 2-20 Rocket 4.3 02:09:40 10° NNW 02:15:49 77° W 02:16:41 65° SSW
Cosmos 2333 4.4 02:15:04 54° WSW 02:16:08 64° NW 02:21:54 10° NNE
Cosmos 2333 Rocket 2.1 02:15:47 72° SSE 02:16:17 78° ESE 02:22:05 10° NNE
Cosmos 1626 3.3 02:14:12 10° N 02:17:08 42° NE 02:17:08 42° NE
Cosmos 2237 Rocket 2.1 02:19:43 69° SSE 02:20:10 73° ESE 02:25:53 10° NE
BREEZE-M DEB (TANK) 4.4 02:21:54 23° ESE 02:21:54 23° ESE 02:23:56 10° E
Cosmos 2058 4.1 02:17:31 10° NNW 02:20:23 35° NW 02:20:23 35° NW
Helios 1A Rocket 3.8 02:19:58 10° N 02:23:21 43° NW 02:23:21 43° NW
Cosmos 1980 3.5 02:24:04 73° S 02:24:36 83° ESE 02:30:18 10° NNE
NOSS 0 Rocket 3.8 02:24:19 65° SSW 02:25:19 84° ESE 02:31:32 10° NE
Cosmos 1680 Rocket 4.3 02:26:52 37° W 02:27:57 42° NW 02:33:01 10° NNE
COSMOS 2428 3.5 02:31:06 35° W 02:32:50 44° NW 02:38:18 10° NNE
USA 238 DEB 4.4 02:32:15 36° SE 02:33:38 40° ESE 02:40:06 10° NE
USA 238 4.4 02:32:21 36° SE 02:33:45 39° ESE 02:40:11 10° NE
BREEZE-M DEB (TANK) 4.4 02:18:17 10° W 02:35:51 61° SSW 02:37:30 43° SSE
Meteor 2-1 Rocket 4.0 02:36:34 69° SW 02:37:14 81° WNW 02:42:52 10° NNE
Aureole 2 Rocket 3.9 02:37:44 38° E 02:37:44 38° E 02:41:14 10° NE
Cosmos 1818 4.3 02:35:18 10° NW 02:39:19 39° W 02:39:19 39° W
Cosmos 1908 4.4 02:42:02 37° E 02:42:02 37° E 02:45:30 10° NNE
Cosmos 1328 Rocket 3.8 02:42:40 57° E 02:42:40 57° E 02:46:53 10° NNE
Landsat 4 4.4 02:43:46 50° ENE 02:43:46 50° ENE 02:47:19 10° N
Meteor 1-16 Rocket 4.3 02:43:33 53° WSW 02:44:21 58° WNW 02:49:48 10° N
CZ-4C R/B 3.1 02:46:31 32° SE 02:47:15 33° ESE 02:52:39 10° ENE
Cosmos 292 Rocket 4.1 02:48:02 50° WNW 02:48:24 51° WNW 02:53:06 10° NNE
Cosmos 2278 Rocket 3.6 02:44:12 10° NW 02:47:34 23° W 02:47:34 23° W
Cosmos 2228 Rocket 3.0 02:50:26 80° SE 02:50:33 81° E 02:55:10 10° NNE
SL-08 R/B 3.4 02:49:50 56° SE 02:50:39 69° ENE 02:55:21 10° N
NOSS 3-3 (A) 4.4 02:46:31 10° NW 02:53:47 87° NE 03:01:37 10° SE
NOSS 3-3 (C) 4.4 02:46:37 10° NW 02:53:52 86° NE 03:01:43 10° SE
Lacrosse 4 Rocket 3.3 02:53:40 21° WNW 02:55:19 26° NW 02:59:08 10° NNE
Nadezhda 2 Rocket 4.5 02:49:54 10° NNW 02:56:19 73° W 02:57:59 51° SSW
Cosmos 1932 4.4 03:02:00 51° SSW 03:03:35 73° SE 03:09:56 10° NE
Cosmos 1515 Rocket 3.4 03:06:49 74° SE 03:07:03 77° E 03:11:24 10° NNE
AQUA 4.5 03:04:25 10° NNE 03:09:03 47° E 03:10:15 38° SE
Cosmos 1420 Rocket 4.1 03:04:43 10° NNW 03:09:48 54° WSW 03:09:53 54° WSW
SL-16 R/B 3.2 03:06:02 10° SE 03:11:58 52° ENE 03:17:59 10° N
Cosmos 1633 Rocket 4.4 03:12:50 10° NNW 03:15:54 26° WNW 03:15:54 26° WNW
ATLAS CENTAUR R/B 1.6 03:12:45 10° NW 03:17:22 77° NE 03:20:01 23° SE
CZ-2C R/B 4.2 03:13:37 10° N 03:18:03 26° WNW 03:19:57 21° W
Coronas F rocket 3.6 03:19:13 10° NNE 03:21:24 22° ENE 03:21:24 22° ENE
Cosmos 839 Rocket 4.5 03:13:15 10° NW 03:22:22 85° SW 03:29:26 10° SE
CZ-2D R/B 3.8 03:18:34 10° NE 03:22:59 26° E 03:26:44 13° SE
IRS-P3 4.1 03:17:38 10° NNE 03:23:01 82° ESE 03:24:37 47° S
Cosmos 1933 Rocket 4.1 03:20:40 10° NNW 03:24:35 43° W 03:24:35 43° W
Cosmos 1726 3.6 03:24:53 26° ESE 03:25:52 30° E 03:29:11 10° NNE
Cosmos 2360 Rocket 4.5 03:23:41 10° WNW 03:27:31 18° NNW 03:31:23 10° NNE
Cosmos 1745 Rocket 4.0 03:21:56 10° N 03:28:21 86° E 03:32:03 27° SSE
Cosmos 2221 4.2 03:29:10 21° WNW 03:29:33 22° WNW 03:32:59 10° NNW
Cosmos 1470 Rocket 4.3 03:25:57 10° NNW 03:29:43 37° W 03:29:43 37° W
Cosmos 1300 3.7 03:29:21 35° SE 03:30:14 41° E 03:33:52 10° NNE
Cosmos 1553 Rocket 4.1 03:28:02 32° S 03:31:00 71° E 03:37:05 10° NNE
Cosmos 405 4.3 03:32:42 29° NW 03:32:42 29° NW 03:35:28 10° N
ATLAS 3B R/B 3.0 03:29:11 32° WSW 03:33:06 73° NW 03:40:24 10° NE
Cosmos 1437 Rocket 4.0 03:33:23 31° WNW 03:33:31 31° WNW 03:37:14 10° N
Cosmos 2369 Rocket 2.2 03:28:01 10° NNW 03:33:41 81° ENE 03:39:18 10° SE
UNK 4.3 03:30:56 18° SE 03:34:11 56° ENE 03:38:42 10° N
Cosmos 1048 Rocket 4.1 03:35:33 43° S 03:37:20 78° ESE 03:42:44 10° NNE
SL-08 R/B 4.4 03:33:20 10° NNW 03:39:26 72° W 03:42:13 34° S
NPP 3.6 03:34:00 10° NNE 03:39:27 87° WNW 03:41:26 41° SSW
Cosmos 1417 Rocket 4.5 03:40:38 36° SSW 03:43:26 79° W 03:49:52 10° N
PSLV R/B 4.5 03:39:22 10° N 03:43:52 41° WNW 03:44:58 35° W
COSMOS 2455 3.6 03:41:27 26° W 03:44:33 46° NW 03:50:22 10° NE
ADEOS 3.8 03:41:07 10° NNE 03:46:20 66° ESE 03:48:52 30° S
Cosmos 2219 Rocket 3.6 03:45:01 17° W 03:48:09 28° NW 03:53:00 10° NNE
Cosmos 1271 Rocket 3.0 03:49:06 44° SSE 03:50:14 68° E 03:54:16 10° NNE
Cosmos 1867 3.5 03:49:31 40° SW 03:51:36 89° WNW 03:57:09 10° NE
ARIANE 5 R/B 3.2 03:47:35 10° NNE 03:52:44 52° E 03:56:01 22° SSE
Cosmos 1626 4.3 03:50:26 10° NW 03:51:49 15° WNW 03:51:49 15° WNW
Cosmos 1331 Rocket 3.9 03:48:35 10° NNW 03:53:51 75° WSW 03:57:49 18° SSE
Cosmos 1340 Rocket 2.8 03:50:01 10° NNW 03:53:58 56° W 03:54:20 53° WSW
Cosmos 1707 Rocket 4.0 03:54:15 29° SSE 03:56:22 60° E 04:00:49 10° NNE
Cosmos 1269 Rocket 4.1 03:54:24 38° SW 03:56:23 69° WNW 04:01:42 10° NNE
Meteor 1-4 Rocket 2.3 03:57:08 68° SSW 03:57:32 83° WNW 04:01:04 10° NNE
SL-16 R/B 2.6 03:56:32 31° WSW 03:59:01 54° NW 04:04:39 10° NNE
Cosmos 1943 Rocket 2.7 03:54:34 10° NNW 04:00:15 63° NE 04:05:51 10° SE
Resurs 1-4 Rocket 2.8 03:55:41 10° NNE 04:00:49 50° E 04:04:42 17° S
Cosmos 2333 Rocket 3.6 03:57:46 17° W 04:01:10 30° NW 04:06:14 10° NNE
Cosmos 1151 Rocket 3.4 04:02:52 40° WSW 04:03:57 49° WNW 04:08:14 10° N
Cosmos 1607 3.9 04:01:00 31° SW 04:04:07 77° NW 04:10:19 10° NE
Cosmos 2237 Rocket 3.5 04:01:32 18° W 04:04:47 31° NW 04:09:50 10° NNE
ERBS 2.6 04:04:54 51° S 04:05:18 55° SE 04:08:47 10° ENE
Cosmos 2263 4.2 03:59:39 10° NNW 04:05:29 84° WSW 04:11:17 10° SSE
ERS-2 2.3 04:05:15 10° NNE 04:09:00 72° ESE 04:10:23 36° S
Aureole 2 Rocket 4.1 04:11:48 25° W 04:13:06 30° NW 04:16:56 10° N
Okean O Rocket 3.7 04:10:28 10° NE 04:14:06 24° E 04:17:43 10° SSE
SeaSat 1 2.4 04:09:40 10° SE 04:14:36 86° ENE 04:19:35 10° NNW
USA 161 3.5 04:16:54 14° NW 04:16:54 14° NW 04:17:20 10° NNW
USA 234 3.8 04:09:36 10° ENE 04:15:56 48° SE 04:19:56 22° SSW
Cosmos 883 Rocket 4.5 04:14:34 18° S 04:19:15 82° E 04:25:26 10° NNE
Meteor 1-27 4.2 04:15:53 22° S 04:19:33 86° ESE 04:25:11 10° NNE
IRAS Rocket 4.2 04:14:15 10° NNE 04:19:55 77° WNW 04:23:18 25° SSW
Cosmos 158 Rocket 3.8 04:18:49 29° SSW 04:21:25 81° WNW 04:26:26 10° NNE
USA 238 DEB 3.9 04:19:41 23° WSW 04:24:19 71° NW 04:31:24 10° NE
USA 238 3.9 04:19:48 23° WSW 04:24:25 71° NW 04:31:30 10° NE
UNKNOWN OBJECT B 3.5 04:20:53 10° NNE 04:24:31 48° E 04:27:12 16° S
EO 1 Del DPAF 3.2 04:26:17 19° S 04:29:02 70° WSW 04:32:57 10° NNW
Cosmos 2315 Rocket 4.2 04:24:15 11° S 04:30:13 73° E 04:36:31 10° NNE
Cosmos 2292 Rocket 2.5 04:28:48 10° NNW 04:31:45 71° W 04:33:08 29° S
Cosmos 2251 Rocket 3.5 04:29:17 22° SSW 04:32:43 85° ESE 04:38:00 10° NNE
Iridium 2 3.6 04:29:07 10° N 04:32:56 75° W 04:35:32 19° S
Cosmos 1656 Rocket 4.3 04:28:14 10° NNW 04:33:37 56° NE 04:38:56 10° SE
Cosmos 1869 4.5 04:31:35 10° SSE 04:35:21 41° E 04:39:07 10° NNE
CZ-4C R/B 2.5 04:31:42 23° WSW 04:35:21 68° NW 04:41:48 10° NE
Lacrosse 4 Rocket 4.2 04:33:32 10° NW 04:35:36 13° N 04:37:39 10° NNE
ATLAS 5 CENTAUR R/B 3.4 04:33:05 11° S 04:37:04 30° ESE 04:41:38 10° ENE
NOSS 3-2 (A) 3.6 04:35:51 22° SW 04:40:12 84° SE 04:47:10 10° NE
Cosmos 1892 2.8 04:37:37 10° NNW 04:41:24 52° W 04:43:54 19° SSW
Cosmos 1603 3.9 04:37:54 22° SW 04:41:31 60° NW 04:47:14 10° NNE
Cosmos 1356 Rocket 4.5 04:43:15 10° NW 04:46:38 25° W 04:47:39 23° WSW
Meteor 2-3 Rocket 4.3 04:43:44 10° NNW 04:49:01 38° W 04:53:16 15° SSW
Abrixas rocket 2.9 04:50:10 27° SW 04:51:23 38° S 04:54:31 10° ESE
CZ-2C R/B 3.6 04:47:02 10° SSE 04:51:29 90° WSW 04:55:57 10° NNW
Coronas F rocket 3.2 04:51:04 10° NW 04:52:19 16° WNW 04:52:19 16° WNW
Cosmos 2242 Rocket 3.7 04:51:33 16° SSW 04:55:08 67° WNW 04:59:42 10° N
ARGOS Delta rocket 3.9 04:50:56 10° NNE 04:55:24 69° E 04:59:47 10° S
SL-16 R/B 3.1 04:50:55 13° SSW 04:55:51 37° W 05:01:33 10° NNW
ATLAS CENTAUR R/B 2.7 04:52:42 10° WNW 04:55:55 20° WSW 04:56:06 20° WSW
NOSS 3-2 (C) 3.6 04:51:36 18° SW 04:56:31 87° SE 05:03:30 10° NE
Meteor 2-10 4.1 04:52:17 13° SSW 04:57:19 77° WNW 05:02:44 10° N
Meteor 2-11 Rocket 4.4 04:52:28 10° S 04:58:34 86° WNW 05:04:41 10° N
CENTAUR R/B 3.8 04:53:59 10° S 04:59:37 36° ESE 05:05:52 10° NE
MTI 4.3 04:58:24 14° SSW 05:00:59 42° W 05:04:12 10° NNW
Cosmos 1726 3.3 04:59:34 19° WSW 05:01:15 27° WNW 05:04:29 10° N
CZ-2D R/B 2.2 04:58:14 10° N 05:03:28 60° WNW 05:08:03 13° SW
Cosmos 1862 Rocket 3.6 05:00:46 10° S 05:05:08 84° E 05:09:36 10° NNE
Cosmos 1300 4.2 05:04:24 16° WSW 05:06:10 22° WNW 05:09:14 10° NNW
Okean 2 Rocket 4.2 05:03:24 10° N 05:07:47 48° ENE 05:12:10 10° SSE
MOZ.5/SAFIR/RUBIN 5/SL-8 3.7 05:03:58 10° S 05:08:34 63° WSW 05:13:12 10° NNW
Cosmos 1943 3.3 05:07:23 14° SW 05:12:18 72° NW 05:17:58 10° NNE
PSLV R/B 3.8 05:08:37 10° NNE 05:12:22 78° ESE 05:16:10 10° S
Cosmos 494 Rocket 4.1 05:10:04 14° SW 05:14:38 63° WNW 05:19:52 10° NNE
Cosmos 2369 Rocket 3.3 05:12:57 10° NW 05:17:05 21° WSW 05:21:13 10° SSW
Cosmos 1455 2.4 05:15:25 11° SSW 05:19:04 53° WNW 05:22:55 10° N
CZ-4B R/B 3.4 05:14:57 10° NNE 05:20:17 70° ESE 05:25:34 10° S
IRS-1D 4.3 05:15:34 10° N 05:20:19 38° WNW 05:24:53 11° SW
Cosmos 389 Rocket 2.4 05:20:35 10° SSW 05:24:04 86° WNW 05:27:38 10° NNE
ATLAS 3B R/B 3.9 05:17:59 10° W 05:24:56 39° NNW 05:31:33 10° NE
Cosmos 1733 Rocket 3.8 05:21:41 10° NNW 05:25:35 32° W 05:29:29 10° SSW
ARIANE 5 R/B 3.6 05:27:06 10° N 05:31:40 31° WNW 05:36:12 10° WSW
Cosmos 1184 Rocket 4.1 05:29:30 10° NW 05:32:22 24° W 05:35:12 10° SSW
Cosmos 1782 Rocket 3.5 05:28:30 10° NNW 05:32:53 85° W 05:37:14 10° S
Cosmos 2074 Rocket 4.1 05:31:16 10° NNW 05:37:17 54° W 05:43:19 10° SSW
Cosmos 2154 Rocket 4.1 05:32:26 10° N 05:38:48 88° E 05:45:10 10° S
Cosmos 2184 Rocket 4.2 05:34:05 10° NNW 05:40:17 54° W 05:46:26 10° SSW
Resurs 1-4 Rocket 3.0 05:35:52 10° N 05:40:31 33° WNW 05:45:09 10° WSW
ERBS 3.1 05:38:45 10° W 05:42:12 50° NNW 05:45:40 10° ENE
ERS-2 4.2 05:40:08 10° NNW 05:42:19 15° WNW 05:44:29 10° W
Cosmos 1943 Rocket 3.0 05:38:49 10° NW 05:43:39 29° WSW 05:48:25 10° SSW
SL-16 R/B 4.1 05:40:31 10° WNW 05:44:29 19° NNW 05:48:29 10° NNE
Cosmos 2333 Rocket 4.5 05:44:23 10° NW 05:47:28 14° NNW 05:50:33 10° NNE
PAYLOAD B 4.3 05:43:20 10° NNE 05:48:53 72° WNW 05:54:22 10° SSW
Cosmos 1408 3.2 05:45:40 10° NNW 05:49:08 37° W 05:52:36 10° SSW
Okean O Rocket 1.9 05:46:24 10° N 05:50:45 51° WNW 05:55:05 10° SW
